Time,TemperatureF,DewpointF,PressureIn,WindDirection,WindDirectionDegrees,WindSpeedMPH,WindSpeedGustMPH,Humidity,HourlyPrecipIn,Conditions,Clouds,dailyrainin,SoftwareType,DateUTC
2013-08-17 00:00:00,60.2,54.3,30.20,ENE,57,0.0,0.0,81,0.00,,,0.00,Wunderground v.1.15,2013-08-17 05:00:00,
2013-08-17 00:10:00,59.8,54.3,30.21,ENE,57,0.0,0.0,82,0.00,,,0.00,Wunderground v.1.15,2013-08-17 05:10:00,
2013-08-17 00:20:00,59.5,54.0,30.21,ENE,57,0.0,0.0,82,0.00,,,0.00,Wunderground v.1.15,2013-08-17 05:20:00,
2013-08-17 00:25:00,59.4,54.2,30.21,ENE,57,0.0,0.0,83,0.00,,,0.00,Wunderground v.1.15,2013-08-17 05:25:00,
2013-08-17 00:35:00,59.1,53.9,30.21,ENE,57,0.0,0.0,83,0.00,,,0.00,Wunderground v.1.15,2013-08-17 05:35:00,
2013-08-17 00:40:00,59.0,53.8,30.21,ENE,57,0.0,0.0,83,0.00,,,0.00,Wunderground v.1.15,2013-08-17 05:40:00,
2013-08-17 00:50:00,58.8,53.6,30.21,ENE,57,0.0,0.0,83,0.00,,,0.00,Wunderground v.1.15,2013-08-17 05:50:00,
2013-08-17 00:55:00,58.7,53.5,30.21,ENE,57,0.0,0.0,83,0.00,,,0.00,Wunderground v.1.15,2013-08-17 05:55:00,
2013-08-17 01:00:00,58.7,53.9,30.21,ENE,57,0.0,0.0,84,0.00,,,0.00,Wunderground v.1.15,2013-08-17 06:00:00,
2013-08-17 01:10:00,58.6,53.8,30.21,ENE,57,0.0,0.0,84,0.00,,,0.00,Wunderground v.1.15,2013-08-17 06:10:00,
2013-08-17 01:20:00,58.6,54.1,30.21,ENE,57,0.0,0.0,85,0.00,,,0.00,Wunderground v.1.15,2013-08-17 06:20:00,
2013-08-17 01:25:00,58.6,54.1,30.21,ENE,57,0.0,0.0,85,0.00,,,0.00,Wunderground v.1.15,2013-08-17 06:25:00,
2013-08-17 01:35:00,58.7,54.2,30.20,ENE,57,0.0,0.0,85,0.00,,,0.00,Wunderground v.1.15,2013-08-17 06:35:00,
2013-08-17 01:40:00,58.7,54.2,30.20,ENE,57,0.0,0.0,85,0.00,,,0.00,Wunderground v.1.15,2013-08-17 06:40:00,
2013-08-17 01:50:00,58.7,54.2,30.20,ENE,57,0.0,0.0,85,0.00,,,0.00,Wunderground v.1.15,2013-08-17 06:50:00,
2013-08-17 01:55:00,58.7,54.2,30.20,ENE,57,0.0,0.0,85,0.00,,,0.00,Wunderground v.1.15,2013-08-17 06:55:00,
2013-08-17 02:05:00,58.8,54.3,30.20,ENE,57,0.0,0.0,85,0.00,,,0.00,Wunderground v.1.15,2013-08-17 07:05:00,
2013-08-17 02:15:00,58.7,54.2,30.20,ENE,57,0.0,0.0,85,0.00,,,0.00,Wunderground v.1.15,2013-08-17 07:15:00,
2013-08-17 02:20:00,58.7,54.2,30.20,ENE,57,0.0,0.0,85,0.00,,,0.00,Wunderground v.1.15,2013-08-17 07:20:00,
2013-08-17 02:25:00,58.6,54.1,30.20,ENE,57,0.0,0.0,85,0.00,,,0.00,Wunderground v.1.15,2013-08-17 07:25:00,
2013-08-17 02:35:00,58.6,54.1,30.20,ENE,57,0.0,0.0,85,0.00,,,0.00,Wunderground v.1.15,2013-08-17 07:35:00,
2013-08-17 02:40:00,58.5,54.0,30.20,ENE,57,0.0,0.0,85,0.00,,,0.00,Wunderground v.1.15,2013-08-17 07:40:00,
2013-08-17 02:50:00,58.5,54.0,30.20,ENE,57,0.0,0.0,85,0.00,,,0.00,Wunderground v.1.15,2013-08-17 07:50:00,
2013-08-17 02:55:00,58.5,54.0,30.20,ENE,57,0.0,0.0,85,0.00,,,0.00,Wunderground v.1.15,2013-08-17 07:55:00,
2013-08-17 03:05:00,58.4,53.9,30.20,ENE,57,0.0,0.0,85,0.00,,,0.00,Wunderground v.1.15,2013-08-17 08:05:00,
2013-08-17 03:10:00,58.4,53.9,30.20,ENE,57,0.0,0.0,85,0.00,,,0.00,Wunderground v.1.15,2013-08-17 08:10:00,
2013-08-17 03:20:00,58.3,53.8,30.20,ENE,57,0.0,0.0,85,0.00,,,0.00,Wunderground v.1.15,2013-08-17 08:20:00,
2013-08-17 03:25:00,58.2,53.7,30.20,ENE,57,0.0,0.0,85,0.00,,,0.00,Wunderground v.1.15,2013-08-17 08:25:00,
2013-08-17 03:30:00,58.2,53.7,30.20,ENE,57,0.0,0.0,85,0.00,,,0.00,Wunderground v.1.15,2013-08-17 08:30:00,
2013-08-17 03:40:00,58.0,53.5,30.20,ENE,57,0.0,0.0,85,0.00,,,0.00,Wunderground v.1.15,2013-08-17 08:40:00,
2013-08-17 03:45:00,57.9,53.4,30.20,ENE,57,0.0,0.0,85,0.00,,,0.00,Wunderground v.1.15,2013-08-17 08:45:00,
2013-08-17 03:55:00,57.7,53.2,30.20,ENE,57,0.0,0.0,85,0.00,,,0.00,Wunderground v.1.15,2013-08-17 08:55:00,
2013-08-17 04:00:00,57.6,53.1,30.21,ENE,57,0.0,0.0,85,0.00,,,0.00,Wunderground v.1.15,2013-08-17 09:00:00,
2013-08-17 04:10:00,57.3,52.8,30.21,ENE,57,0.0,0.0,85,0.00,,,0.00,Wunderground v.1.15,2013-08-17 09:10:00,
2013-08-17 04:15:00,57.2,52.7,30.21,ENE,57,0.0,0.0,85,0.00,,,0.00,Wunderground v.1.15,2013-08-17 09:15:00,
2013-08-17 04:25:00,57.1,53.0,30.20,ENE,57,0.0,0.0,86,0.00,,,0.00,Wunderground v.1.15,2013-08-17 09:25:00,
2013-08-17 04:30:00,57.0,52.9,30.20,ENE,57,0.0,0.0,86,0.00,,,0.00,Wunderground v.1.15,2013-08-17 09:30:00,
2013-08-17 04:40:00,57.0,53.2,30.21,ENE,57,0.0,0.0,87,0.00,,,0.00,Wunderground v.1.15,2013-08-17 09:40:00,
2013-08-17 04:50:00,56.9,52.8,30.21,ENE,57,0.0,0.0,86,0.00,,,0.00,Wunderground v.1.15,2013-08-17 09:50:00,
2013-08-17 04:55:00,56.8,52.7,30.21,ENE,57,0.0,0.0,86,0.00,,,0.00,Wunderground v.1.15,2013-08-17 09:55:00,
2013-08-17 05:05:00,56.7,52.9,30.21,ENE,57,0.0,0.0,87,0.00,,,0.00,Wunderground v.1.15,2013-08-17 10:05:00,
2013-08-17 05:10:00,56.7,52.9,30.21,ENE,57,0.0,0.0,87,0.00,,,0.00,Wunderground v.1.15,2013-08-17 10:10:00,
2013-08-17 05:20:00,56.7,52.9,30.21,ENE,57,0.0,0.0,87,0.00,,,0.00,Wunderground v.1.15,2013-08-17 10:20:00,
2013-08-17 05:25:00,56.7,52.9,30.21,ENE,57,0.0,0.0,87,0.00,,,0.00,Wunderground v.1.15,2013-08-17 10:25:00,
2013-08-17 05:35:00,56.7,52.9,30.21,ENE,57,0.0,0.0,87,0.00,,,0.00,Wunderground v.1.15,2013-08-17 10:35:00,
2013-08-17 05:40:00,56.7,52.9,30.21,ENE,57,0.0,0.0,87,0.00,,,0.00,Wunderground v.1.15,2013-08-17 10:40:00,
2013-08-17 05:50:00,56.8,53.3,30.22,ENE,57,0.0,0.0,88,0.00,,,0.00,Wunderground v.1.15,2013-08-17 10:50:00,
2013-08-17 05:55:00,56.7,52.9,30.22,ENE,57,0.0,0.0,87,0.00,,,0.00,Wunderground v.1.15,2013-08-17 10:55:00,
2013-08-17 06:05:00,56.8,53.0,30.22,ENE,57,0.0,0.0,87,0.00,,,0.00,Wunderground v.1.15,2013-08-17 11:05:00,
2013-08-17 06:10:00,56.8,53.0,30.22,ENE,57,0.0,0.0,87,0.00,,,0.00,Wunderground v.1.15,2013-08-17 11:10:00,
2013-08-17 06:15:00,56.8,53.0,30.22,ENE,57,0.0,0.0,87,0.00,,,0.00,Wunderground v.1.15,2013-08-17 11:15:00,
2013-08-17 06:20:00,56.7,52.9,30.22,ENE,57,0.0,0.0,87,0.00,,,0.00,Wunderground v.1.15,2013-08-17 11:20:00,
2013-08-17 06:30:00,56.7,52.9,30.22,ENE,57,0.0,0.0,87,0.00,,,0.00,Wunderground v.1.15,2013-08-17 11:30:00,
2013-08-17 06:35:00,56.7,52.9,30.22,ENE,57,0.0,0.0,87,0.00,,,0.00,Wunderground v.1.15,2013-08-17 11:35:00,
2013-08-17 06:45:00,56.8,53.0,30.22,ENE,57,0.0,0.0,87,0.00,,,0.00,Wunderground v.1.15,2013-08-17 11:45:00,
2013-08-17 06:55:00,56.8,53.3,30.23,ENE,57,0.0,0.0,88,0.00,,,0.00,Wunderground v.1.15,2013-08-17 11:55:00,
2013-08-17 07:00:00,56.9,53.4,30.23,ENE,57,0.0,0.0,88,0.00,,,0.00,Wunderground v.1.15,2013-08-17 12:00:00,
2013-08-17 07:05:00,57.0,53.5,30.23,ENE,57,0.0,0.0,88,0.00,,,0.00,Wunderground v.1.15,2013-08-17 12:05:00,
2013-08-17 07:15:00,57.2,53.7,30.23,ENE,57,0.0,0.0,88,0.00,,,0.00,Wunderground v.1.15,2013-08-17 12:15:00,
2013-08-17 07:20:00,57.3,53.8,30.23,ENE,57,0.0,0.0,88,0.00,,,0.00,Wunderground v.1.15,2013-08-17 12:20:00,
2013-08-17 07:25:00,57.5,54.0,30.23,ENE,57,0.0,0.0,88,0.00,,,0.00,Wunderground v.1.15,2013-08-17 12:25:00,
2013-08-17 07:35:00,58.0,54.8,30.24,ENE,57,0.0,0.0,89,0.00,,,0.00,Wunderground v.1.15,2013-08-17 12:35:00,
2013-08-17 07:40:00,58.3,55.1,30.24,ENE,57,0.0,0.0,89,0.00,,,0.00,Wunderground v.1.15,2013-08-17 12:40:00,
2013-08-17 07:45:00,58.7,55.5,30.24,ENE,57,0.0,0.0,89,0.00,,,0.00,Wunderground v.1.15,2013-08-17 12:45:00,
2013-08-17 07:55:00,59.4,56.2,30.24,ENE,57,0.0,0.0,89,0.00,,,0.00,Wunderground v.1.15,2013-08-17 12:55:00,
2013-08-17 08:00:00,59.8,56.6,30.24,ENE,57,0.0,0.0,89,0.00,,,0.00,Wunderground v.1.15,2013-08-17 13:00:00,
2013-08-17 08:05:00,60.2,56.6,30.24,ENE,57,0.0,0.0,88,0.00,,,0.00,Wunderground v.1.15,2013-08-17 13:05:00,
2013-08-17 08:15:00,61.4,57.5,30.24,ENE,57,0.0,0.0,87,0.00,,,0.00,Wunderground v.1.15,2013-08-17 13:15:00,
2013-08-17 08:20:00,62.5,58.6,30.24,ENE,57,0.0,0.0,87,0.00,,,0.00,Wunderground v.1.15,2013-08-17 13:20:00,
2013-08-17 08:30:00,65.2,58.9,30.24,ENE,57,0.0,0.0,80,0.00,,,0.00,Wunderground v.1.15,2013-08-17 13:30:00,
2013-08-17 08:35:00,66.7,59.3,30.24,ENE,57,1.0,1.0,77,0.00,,,0.00,Wunderground v.1.15,2013-08-17 13:35:00,
2013-08-17 08:45:00,69.4,60.0,30.24,ENE,63,1.0,1.0,72,0.00,,,0.00,Wunderground v.1.15,2013-08-17 13:45:00,
2013-08-17 08:50:00,70.5,59.0,30.24,ENE,63,1.0,1.0,67,0.00,,,0.00,Wunderground v.1.15,2013-08-17 13:50:00,
2013-08-17 08:55:00,71.1,58.3,30.24,ENE,60,2.0,2.0,64,0.00,,,0.00,Wunderground v.1.15,2013-08-17 13:55:00,
2013-08-17 09:05:00,71.2,58.4,30.24,ENE,59,1.0,2.0,64,0.00,,,0.00,Wunderground v.1.15,2013-08-17 14:05:00,
2013-08-17 09:10:00,71.0,58.6,30.24,ENE,59,1.0,1.0,65,0.00,,,0.00,Wunderground v.1.15,2013-08-17 14:10:00,
2013-08-17 09:20:00,71.0,59.5,30.24,ENE,59,0.0,0.0,67,0.00,,,0.00,Wunderground v.1.15,2013-08-17 14:20:00,
2013-08-17 09:25:00,71.0,59.5,30.24,ENE,59,0.0,0.0,67,0.00,,,0.00,Wunderground v.1.15,2013-08-17 14:25:00,
2013-08-17 09:30:00,71.0,59.1,30.24,ENE,59,0.0,0.0,66,0.00,,,0.00,Wunderground v.1.15,2013-08-17 14:30:00,
2013-08-17 09:40:00,71.0,59.9,30.25,ENE,59,0.0,0.0,68,0.00,,,0.00,Wunderground v.1.15,2013-08-17 14:40:00,
2013-08-17 09:45:00,71.0,60.3,30.24,ENE,59,0.0,0.0,69,0.00,,,0.00,Wunderground v.1.15,2013-08-17 14:45:00,
2013-08-17 09:55:00,71.7,60.2,30.24,ENE,59,0.0,0.0,67,0.00,,,0.00,Wunderground v.1.15,2013-08-17 14:55:00,
2013-08-17 10:00:00,72.2,60.6,30.25,ENE,65,0.0,4.0,67,0.00,,,0.00,Wunderground v.1.15,2013-08-17 15:00:00,
2013-08-17 10:10:00,74.0,59.7,30.25,ENE,58,2.0,7.0,61,0.00,,,0.00,Wunderground v.1.15,2013-08-17 15:10:00,
2013-08-17 10:15:00,75.0,60.2,30.25,NE,53,1.0,7.0,60,0.00,,,0.00,Wunderground v.1.15,2013-08-17 15:15:00,
2013-08-17 10:20:00,75.8,59.5,30.25,NE,54,2.0,4.0,57,0.00,,,0.00,Wunderground v.1.15,2013-08-17 15:20:00,
2013-08-17 10:30:00,76.6,59.7,30.25,ENE,57,3.0,5.0,56,0.00,,,0.00,Wunderground v.1.15,2013-08-17 15:30:00,
2013-08-17 10:35:00,76.7,59.8,30.25,ENE,61,2.0,5.0,56,0.00,,,0.00,Wunderground v.1.15,2013-08-17 15:35:00,
2013-08-17 10:45:00,77.3,61.4,30.24,ENE,63,3.0,5.0,58,0.00,,,0.00,Wunderground v.1.15,2013-08-17 15:45:00,
2013-08-17 10:50:00,77.8,60.3,30.24,ENE,67,3.0,4.0,55,0.00,,,0.00,Wunderground v.1.15,2013-08-17 15:50:00,
2013-08-17 10:55:00,78.5,62.0,30.24,ENE,73,2.0,4.0,57,0.00,,,0.00,Wunderground v.1.15,2013-08-17 15:55:00,
2013-08-17 11:05:00,79.8,60.6,30.24,ENE,57,3.0,5.0,52,0.00,,,0.00,Wunderground v.1.15,2013-08-17 16:05:00,
2013-08-17 11:10:00,80.4,60.1,30.24,ENE,64,2.0,3.0,50,0.00,,,0.00,Wunderground v.1.15,2013-08-17 16:10:00,
2013-08-17 11:20:00,81.1,57.1,30.23,ENE,65,4.0,4.0,44,0.00,,,0.00,Wunderground v.1.15,2013-08-17 16:20:00,
2013-08-17 11:25:00,81.2,58.5,30.23,NE,55,4.0,4.0,46,0.00,,,0.00,Wunderground v.1.15,2013-08-17 16:25:00,
2013-08-17 11:35:00,81.4,58.0,30.23,ENE,66,3.0,5.0,45,0.00,,,0.00,Wunderground v.1.15,2013-08-17 16:35:00,
2013-08-17 11:40:00,81.4,58.6,30.23,ENE,74,3.0,3.0,46,0.00,,,0.00,Wunderground v.1.15,2013-08-17 16:40:00,
2013-08-17 11:45:00,81.7,58.3,30.23,NE,51,3.0,4.0,45,0.00,,,0.00,Wunderground v.1.15,2013-08-17 16:45:00,
2013-08-17 11:55:00,82.0,59.8,30.23,NE,46,4.0,7.0,47,0.00,,,0.00,Wunderground v.1.15,2013-08-17 16:55:00,
2013-08-17 12:00:00,81.9,58.5,30.23,NE,44,3.0,5.0,45,0.00,,,0.00,Wunderground v.1.15,2013-08-17 17:00:00,
2013-08-17 12:05:00,81.6,58.8,30.23,ENE,57,3.0,5.0,46,0.00,,,0.00,Wunderground v.1.15,2013-08-17 17:05:00,
2013-08-17 12:15:00,81.1,60.1,30.23,ENE,57,2.0,5.0,49,0.00,,,0.00,Wunderground v.1.15,2013-08-17 17:15:00,
2013-08-17 12:25:00,80.7,57.4,30.23,NE,53,3.0,4.0,45,0.00,,,0.00,Wunderground v.1.15,2013-08-17 17:25:00,
2013-08-17 12:30:00,80.3,58.2,30.22,ENE,64,3.0,4.0,47,0.00,,,0.00,Wunderground v.1.15,2013-08-17 17:30:00,
2013-08-17 12:35:00,79.9,57.9,30.22,ENE,67,3.0,4.0,47,0.00,,,0.00,Wunderground v.1.15,2013-08-17 17:35:00,
2013-08-17 12:45:00,79.7,60.0,30.22,ENE,72,2.0,3.0,51,0.00,,,0.00,Wunderground v.1.15,2013-08-17 17:45:00,
2013-08-17 12:50:00,80.0,57.4,30.22,ENE,63,3.0,3.0,46,0.00,,,0.00,Wunderground v.1.15,2013-08-17 17:50:00,
2013-08-17 13:00:00,80.2,56.3,30.21,ENE,63,1.0,4.0,44,0.00,,,0.00,Wunderground v.1.15,2013-08-17 18:00:00,
2013-08-17 13:05:00,80.1,58.6,30.21,ENE,67,3.0,5.0,48,0.00,,,0.00,Wunderground v.1.15,2013-08-17 18:05:00,
2013-08-17 13:15:00,80.3,57.6,30.20,ENE,63,3.0,5.0,46,0.00,,,0.00,Wunderground v.1.15,2013-08-17 18:15:00,
2013-08-17 13:20:00,80.5,60.7,30.20,ENE,76,3.0,4.0,51,0.00,,,0.00,Wunderground v.1.15,2013-08-17 18:20:00,
2013-08-17 13:30:00,80.7,58.0,30.20,ENE,70,3.0,3.0,46,0.00,,,0.00,Wunderground v.1.15,2013-08-17 18:30:00,
2013-08-17 13:35:00,81.1,60.7,30.20,ENE,71,1.0,3.0,50,0.00,,,0.00,Wunderground v.1.15,2013-08-17 18:35:00,
2013-08-17 13:45:00,81.6,58.8,30.20,ENE,57,3.0,5.0,46,0.00,,,0.00,Wunderground v.1.15,2013-08-17 18:45:00,
2013-08-17 13:50:00,81.7,58.3,30.19,ENE,74,3.0,3.0,45,0.00,,,0.00,Wunderground v.1.15,2013-08-17 18:50:00,
2013-08-17 14:00:00,82.1,61.0,30.19,NE,49,1.0,5.0,49,0.00,,,0.00,Wunderground v.1.15,2013-08-17 19:00:00,
2013-08-17 14:05:00,82.1,59.3,30.19,NE,53,3.0,5.0,46,0.00,,,0.00,Wunderground v.1.15,2013-08-17 19:05:00,
2013-08-17 14:10:00,82.0,60.4,30.19,NE,51,3.0,3.0,48,0.00,,,0.00,Wunderground v.1.15,2013-08-17 19:10:00,
2013-08-17 14:20:00,82.1,57.4,30.19,NE,45,2.0,2.0,43,0.00,,,0.00,Wunderground v.1.15,2013-08-17 19:20:00,
2013-08-17 14:25:00,82.2,57.5,30.18,ENE,71,2.0,2.0,43,0.00,,,0.00,Wunderground v.1.15,2013-08-17 19:25:00,
2013-08-17 14:35:00,82.1,58.0,30.18,ENE,62,2.0,4.0,44,0.00,,,0.00,Wunderground v.1.15,2013-08-17 19:35:00,
2013-08-17 14:40:00,82.0,57.9,30.18,ENE,64,2.0,2.0,44,0.00,,,0.00,Wunderground v.1.15,2013-08-17 19:40:00,
2013-08-17 14:50:00,81.9,56.6,30.18,ENE,63,2.0,3.0,42,0.00,,,0.00,Wunderground v.1.15,2013-08-17 19:50:00,
2013-08-17 14:55:00,81.6,55.6,30.17,ENE,57,3.0,3.0,41,0.00,,,0.00,Wunderground v.1.15,2013-08-17 19:55:00,
2013-08-17 15:00:00,81.6,56.9,30.18,ENE,61,2.0,2.0,43,0.00,,,0.00,Wunderground v.1.15,2013-08-17 20:00:00,
2013-08-17 15:10:00,81.5,56.8,30.18,ENE,60,3.0,3.0,43,0.00,,,0.00,Wunderground v.1.15,2013-08-17 20:10:00,
2013-08-17 15:15:00,81.1,53.1,30.18,East,88,3.0,3.0,38,0.00,,,0.00,Wunderground v.1.15,2013-08-17 20:15:00,
2013-08-17 15:25:00,80.5,54.6,30.17,ENE,68,4.0,9.0,41,0.00,,,0.00,Wunderground v.1.15,2013-08-17 20:25:00,
2013-08-17 15:30:00,80.2,54.4,30.17,NE,51,4.0,4.0,41,0.00,,,0.00,Wunderground v.1.15,2013-08-17 20:30:00,
2013-08-17 15:40:00,79.6,55.8,30.17,NE,51,3.0,4.0,44,0.00,,,0.00,Wunderground v.1.15,2013-08-17 20:40:00,
2013-08-17 15:45:00,79.5,56.3,30.17,NE,55,3.0,7.0,45,0.00,,,0.00,Wunderground v.1.15,2013-08-17 20:45:00,
2013-08-17 15:55:00,79.1,53.4,30.17,NE,45,2.0,3.0,41,0.00,,,0.00,Wunderground v.1.15,2013-08-17 20:55:00,
2013-08-17 16:00:00,79.0,57.0,30.17,NE,45,2.0,2.0,47,0.00,,,0.00,Wunderground v.1.15,2013-08-17 21:00:00,
2013-08-17 16:05:00,79.0,55.8,30.17,NE,49,2.0,2.0,45,0.00,,,0.00,Wunderground v.1.15,2013-08-17 21:05:00,
2013-08-17 16:15:00,78.9,54.5,30.17,NE,53,1.0,2.0,43,0.00,,,0.00,Wunderground v.1.15,2013-08-17 21:15:00,
2013-08-17 16:20:00,78.9,56.4,30.17,ENE,57,1.0,2.0,46,0.00,,,0.00,Wunderground v.1.15,2013-08-17 21:20:00,
2013-08-17 16:30:00,79.0,55.8,30.17,NE,56,2.0,2.0,45,0.00,,,0.00,Wunderground v.1.15,2013-08-17 21:30:00,
2013-08-17 16:35:00,79.0,57.0,30.17,ESE,105,2.0,3.0,47,0.00,,,0.00,Wunderground v.1.15,2013-08-17 21:35:00,
2013-08-17 16:45:00,78.9,55.1,30.17,ESE,116,3.0,3.0,44,0.00,,,0.00,Wunderground v.1.15,2013-08-17 21:45:00,
2013-08-17 16:50:00,79.0,56.5,30.17,East,89,3.0,5.0,46,0.00,,,0.00,Wunderground v.1.15,2013-08-17 21:50:00,
2013-08-17 17:00:00,78.9,56.4,30.17,SE,126,3.0,3.0,46,0.00,,,0.00,Wunderground v.1.15,2013-08-17 22:00:00,
2013-08-17 17:05:00,78.9,55.8,30.17,ESE,103,3.0,3.0,45,0.00,,,0.00,Wunderground v.1.15,2013-08-17 22:05:00,
2013-08-17 17:15:00,78.6,57.3,30.17,NE,54,2.0,3.0,48,0.00,,,0.00,Wunderground v.1.15,2013-08-17 22:15:00,
2013-08-17 17:20:00,78.5,56.6,30.17,NE,55,3.0,3.0,47,0.00,,,0.00,Wunderground v.1.15,2013-08-17 22:20:00,
2013-08-17 17:25:00,78.3,55.2,30.17,NE,51,3.0,3.0,45,0.00,,,0.00,Wunderground v.1.15,2013-08-17 22:25:00,
2013-08-17 17:35:00,78.0,55.5,30.17,ENE,66,2.0,2.0,46,0.00,,,0.00,Wunderground v.1.15,2013-08-17 22:35:00,
2013-08-17 17:45:00,77.8,55.4,30.17,ENE,66,1.0,1.0,46,0.00,,,0.00,Wunderground v.1.15,2013-08-17 22:45:00,
2013-08-17 17:50:00,77.6,56.4,30.17,ENE,59,2.0,2.0,48,0.00,,,0.00,Wunderground v.1.15,2013-08-17 22:50:00,
2013-08-17 17:55:00,77.5,55.1,30.17,NE,54,2.0,2.0,46,0.00,,,0.00,Wunderground v.1.15,2013-08-17 22:55:00,
2013-08-17 18:05:00,77.2,56.0,30.17,NE,53,2.0,2.0,48,0.00,,,0.00,Wunderground v.1.15,2013-08-17 23:05:00,
2013-08-17 18:10:00,77.1,55.9,30.17,NE,51,2.0,2.0,48,0.00,,,0.00,Wunderground v.1.15,2013-08-17 23:10:00,
2013-08-17 18:20:00,76.8,56.8,30.17,ENE,58,2.0,2.0,50,0.00,,,0.00,Wunderground v.1.15,2013-08-17 23:20:00,
2013-08-17 18:25:00,76.6,56.0,30.17,ENE,58,2.0,2.0,49,0.00,,,0.00,Wunderground v.1.15,2013-08-17 23:25:00,
2013-08-17 18:35:00,76.2,57.3,30.16,ENE,58,2.0,3.0,52,0.00,,,0.00,Wunderground v.1.15,2013-08-17 23:35:00,
2013-08-17 18:40:00,76.0,56.6,30.16,ENE,58,1.0,2.0,51,0.00,,,0.00,Wunderground v.1.15,2013-08-17 23:40:00,
2013-08-17 18:45:00,75.8,56.9,30.17,ENE,58,1.0,3.0,52,0.00,,,0.00,Wunderground v.1.15,2013-08-17 23:45:00,
2013-08-17 18:55:00,75.4,57.6,30.17,ENE,57,2.0,2.0,54,0.00,,,0.00,Wunderground v.1.15,2013-08-17 23:55:00,
2013-08-17 19:05:00,74.9,57.1,30.17,ENE,58,1.0,1.0,54,0.00,,,0.00,Wunderground v.1.15,2013-08-18 00:05:00,
2013-08-17 19:10:00,74.6,57.9,30.17,ENE,58,0.0,0.0,56,0.00,,,0.00,Wunderground v.1.15,2013-08-18 00:10:00,
2013-08-17 19:15:00,74.4,58.2,30.17,ENE,58,0.0,0.0,57,0.00,,,0.00,Wunderground v.1.15,2013-08-18 00:15:00,
2013-08-17 19:25:00,73.8,57.6,30.17,ENE,58,0.0,0.0,57,0.00,,,0.00,Wunderground v.1.15,2013-08-18 00:25:00,
2013-08-17 19:35:00,73.3,57.6,30.17,ENE,58,0.0,0.0,58,0.00,,,0.00,Wunderground v.1.15,2013-08-18 00:35:00,
2013-08-17 19:40:00,72.9,57.7,30.17,ENE,58,0.0,0.0,59,0.00,,,0.00,Wunderground v.1.15,2013-08-18 00:40:00,
2013-08-17 19:50:00,72.1,57.9,30.17,ENE,58,0.0,0.0,61,0.00,,,0.00,Wunderground v.1.15,2013-08-18 00:50:00,
2013-08-17 19:55:00,71.6,57.4,30.17,ENE,58,0.0,0.0,61,0.00,,,0.00,Wunderground v.1.15,2013-08-18 00:55:00,
2013-08-17 20:00:00,71.2,57.5,30.17,ENE,58,0.0,0.0,62,0.00,,,0.00,Wunderground v.1.15,2013-08-18 01:00:00,
2013-08-17 20:10:00,70.3,58.0,30.17,ENE,58,0.0,0.0,65,0.00,,,0.00,Wunderground v.1.15,2013-08-18 01:10:00,
2013-08-17 20:20:00,69.5,58.1,30.17,ENE,58,0.0,0.0,67,0.00,,,0.00,Wunderground v.1.15,2013-08-18 01:20:00,
2013-08-17 20:25:00,69.1,57.7,30.17,ENE,58,0.0,0.0,67,0.00,,,0.00,Wunderground v.1.15,2013-08-18 01:25:00,
2013-08-17 20:30:00,68.7,57.7,30.17,ENE,58,0.0,0.0,68,0.00,,,0.00,Wunderground v.1.15,2013-08-18 01:30:00,
2013-08-17 20:40:00,68.0,58.2,30.17,ENE,58,0.0,0.0,71,0.00,,,0.00,Wunderground v.1.15,2013-08-18 01:40:00,
2013-08-17 20:45:00,67.6,57.5,30.17,ENE,58,0.0,0.0,70,0.00,,,0.00,Wunderground v.1.15,2013-08-18 01:45:00,
2013-08-17 20:55:00,67.0,57.3,30.17,ENE,58,0.0,0.0,71,0.00,,,0.00,Wunderground v.1.15,2013-08-18 01:55:00,
2013-08-17 21:00:00,66.7,57.4,30.18,ENE,58,0.0,0.0,72,0.00,,,0.00,Wunderground v.1.15,2013-08-18 02:00:00,
2013-08-17 21:10:00,66.2,57.3,30.18,ENE,58,0.0,0.0,73,0.00,,,0.00,Wunderground v.1.15,2013-08-18 02:10:00,
2013-08-17 21:15:00,65.9,57.0,30.17,ENE,58,0.0,0.0,73,0.00,,,0.00,Wunderground v.1.15,2013-08-18 02:15:00,
2013-08-17 21:25:00,65.4,56.9,30.18,ENE,58,0.0,0.0,74,0.00,,,0.00,Wunderground v.1.15,2013-08-18 02:25:00,
2013-08-17 21:35:00,65.0,56.9,30.18,ENE,58,0.0,0.0,75,0.00,,,0.00,Wunderground v.1.15,2013-08-18 02:35:00,
2013-08-17 21:40:00,64.8,56.7,30.17,ENE,58,0.0,0.0,75,0.00,,,0.00,Wunderground v.1.15,2013-08-18 02:40:00,
2013-08-17 21:50:00,64.5,56.8,30.17,ENE,58,0.0,0.0,76,0.00,,,0.00,Wunderground v.1.15,2013-08-18 02:50:00,
2013-08-17 21:55:00,64.3,56.9,30.17,ENE,58,0.0,0.0,77,0.00,,,0.00,Wunderground v.1.15,2013-08-18 02:55:00,
2013-08-17 22:05:00,64.0,56.6,30.17,ENE,58,0.0,0.0,77,0.00,,,0.00,Wunderground v.1.15,2013-08-18 03:05:00,
2013-08-17 22:15:00,63.6,56.6,30.17,ENE,58,0.0,0.0,78,0.00,,,0.00,Wunderground v.1.15,2013-08-18 03:15:00,
2013-08-17 22:20:00,63.5,56.5,30.17,ENE,58,0.0,0.0,78,0.00,,,0.00,Wunderground v.1.15,2013-08-18 03:20:00,
2013-08-17 22:30:00,63.2,56.6,30.17,ENE,58,0.0,0.0,79,0.00,,,0.00,Wunderground v.1.15,2013-08-18 03:30:00,
2013-08-17 22:35:00,63.1,56.5,30.17,ENE,58,0.0,0.0,79,0.00,,,0.00,Wunderground v.1.15,2013-08-18 03:35:00,
2013-08-17 22:45:00,62.8,56.2,30.17,ENE,58,0.0,0.0,79,0.00,,,0.00,Wunderground v.1.15,2013-08-18 03:45:00,
2013-08-17 22:55:00,62.6,56.3,30.17,ENE,58,0.0,0.0,80,0.00,,,0.00,Wunderground v.1.15,2013-08-18 03:55:00,
2013-08-17 23:00:00,62.5,56.2,30.17,ENE,58,0.0,0.0,80,0.00,,,0.00,Wunderground v.1.15,2013-08-18 04:00:00,
2013-08-17 23:05:00,62.4,56.1,30.18,ENE,58,0.0,0.0,80,0.00,,,0.00,Wunderground v.1.15,2013-08-18 04:05:00,
2013-08-17 23:10:00,62.3,56.4,30.17,ENE,58,0.0,0.0,81,0.00,,,0.00,Wunderground v.1.15,2013-08-18 04:10:00,
2013-08-17 23:15:00,62.2,56.3,30.17,ENE,58,0.0,0.0,81,0.00,,,0.00,Wunderground v.1.15,2013-08-18 04:15:00,
2013-08-17 23:20:00,62.1,56.2,30.17,ENE,58,0.0,0.0,81,0.00,,,0.00,Wunderground v.1.15,2013-08-18 04:20:00,
2013-08-17 23:25:00,62.0,56.1,30.17,ENE,58,0.0,0.0,81,0.00,,,0.00,Wunderground v.1.15,2013-08-18 04:25:00,
2013-08-17 23:30:00,61.9,56.0,30.17,ENE,58,0.0,0.0,81,0.00,,,0.00,Wunderground v.1.15,2013-08-18 04:30:00,
2013-08-17 23:40:00,61.7,56.1,30.17,ENE,58,0.0,0.0,82,0.00,,,0.00,Wunderground v.1.15,2013-08-18 04:40:00,
2013-08-17 23:45:00,61.6,56.0,30.17,ENE,58,0.0,0.0,82,0.00,,,0.00,Wunderground v.1.15,2013-08-18 04:45:00,
2013-08-17 23:50:00,61.5,56.0,30.18,ENE,58,0.0,0.0,82,0.00,,,0.00,Wunderground v.1.15,2013-08-18 04:50:00,
2013-08-17 23:55:00,61.4,55.9,30.18,ENE,58,0.0,0.0,82,0.00,,,0.00,Wunderground v.1.15,2013-08-18 04:55:00,